Back to catalog

CZ-6A DEB

AliveSSO
NORAD 54321·DEBRIS·🇨🇳 China

Launched Nov 11, 2022 from Taiyuan Satellite Launch Center

Loading…

Next Passes (next 24 hours)

TLE

FreshSource: Space-Track

Epoch: Sep 14, 2026, 12:51 UTC

1 54321U 22151BQ  26257.53582891  .00001082  00000-0  31700-3 0  9994
2 54321  98.5901 296.3662 0121460  85.0466 276.4576 14.41743885201179

Track CZ-6A DEB in real time with AllMySat

Download on the App Store